CAPE
6 3 2 4 4 4 7 6 4 4 3 3 0 0 0 9 5 5 15 11 11 3 2 3 3 6 27 94 132 132 147 157 157 157 156 147 141 141 132 127 127 117 114 108 108 100 95 84 84 75 67 61 59 59 56 52 52 47 46 55 55 74 86 104 104 121 135 160 195 195 205 203 184 184 230 257 265 265 224 208 208 232 249 243 243 230
7 3 3 5 5 8 9 6 3 3 0 0 2 2 0 nan 2 2 5 10 10 4 2 4 4 4 2 34 110 110 123 134 135 135 141 140 137 137 143 148 148 144 146 137 137 120 109 93 93 85 73 68 66 66 64 59 59 57 57 67 67 80 92 101 101 112 109 125 137 137 145 137 123 123 129 150 144 144 127 134 134 174 237 253 253 239
5 4 7 8 8 11 7 3 nan nan nan 0 7 7 7 3 4 4 3 4 4 2 1 2 2 2 0 9 84 84 100 116 123 123 131 143 157 157 168 181 181 187 176 167 167 146 127 115 115 102 87 80 78 78 72 69 69 64 60 62 62 73 86 92 92 91 91 94 105 105 104 94 83 83 86 79 77 77 81 75 75 131 195 238 238 258
11 8 11 13 13 12 7 1 0 0 0 3 11 11 15 14 12 12 5 1 1 0 0 nan nan nan nan 0 42 42 87 108 128 128 143 160 185 185 213 225 225 210 192 182 182 167 151 136 136 123 110 102 92 92 83 80 80 76 68 62 62 65 72 76 76 81 78 90 89 89 87 81 72 72 74 73 81 81 83 89 89 82 141 221 221 267
18 13 17 21 21 25 24 11 4 4 8 7 12 12 12 12 8 8 1 nan nan 0 nan nan nan nan nan nan 16 16 83 109 137 137 169 198 226 226 240 232 232 210 196 185 185 184 179 170 170 150 131 123 113 113 104 93 93 83 76 65 65 60 62 67 67 77 81 91 93 93 87 84 76 76 72 79 86 86 107 102 102 100 112 211 211 276
22 24 35 42 42 45 41 32 21 21 12 5 3 3 3 4 3 3 0 1 1 1 0 nan nan nan nan nan 22 22 83 123 153 153 191 223 242 242 226 211 211 187 186 190 190 199 193 188 188 178 162 147 134 134 123 109 109 99 87 75 75 67 66 74 74 88 97 96 89 89 84 83 73 73 77 73 83 83 95 102 102 116 122 194 194 281
42 36 41 52 52 59 37 28 22 22 9 3 1 1 0 3 6 6 7 3 3 1 1 nan nan 0 0 3 46 46 101 139 169 169 204 217 215 215 201 191 191 174 182 197 197 212 208 196 196 187 176 159 151 151 136 115 115 109 94 86 86 82 83 93 93 97 100 93 85 85 78 77 75 75 68 67 66 66 72 94 94 125 151 208 208 264
54 37 28 15 15 8 6 3 1 1 nan nan 1 1 3 6 3 3 0 0 0 0 1 3 3 2 4 4 32 32 51 57 49 49 54 57 99 99 124 157 157 179 208 218 218 226 243 250 250 255 251 244 219 219 195 169 169 131 115 111 111 112 117 109 109 109 109 112 115 115 118 110 90 90 83 80 78 78 82 112 112 160 206 188 188 172
47 36 34 21 21 11 8 3 1 1 1 4 8 8 11 4 0 0 0 nan nan nan 1 5 5 10 13 28 65 65 122 116 43 43 24 nan nan nan 39 105 105 155 224 237 237 281 308 332 332 342 338 302 284 284 259 233 233 200 169 149 149 127 127 122 122 121 116 116 129 129 134 134 128 128 111 107 96 96 98 133 133 153 169 156 156 126
45 39 36 29 29 25 13 3 4 4 9 19 30 30 15 nan nan nan nan nan nan nan 3 12 12 34 67 89 86 86 80 75 119 119 132 77 110 110 74 84 84 104 257 309 309 365 403 399 399 390 342 305 264 264 242 218 218 208 195 183 183 147 130 126 126 131 128 124 120 120 119 109 106 106 97 96 87 87 83 76 76 82 69 81 81 78
43 43 38 33 33 33 14 8 17 17 38 66 30 30 nan nan nan nan 0 1 1 6 21 42 42 94 115 79 42 42 20 2 3 3 21 50 82 82 112 151 151 227 319 388 388 433 398 341 341 335 291 260 239 239 213 206 206 191 189 182 182 153 132 129 129 132 137 123 106 106 90 79 71 71 67 70 62 62 54 58 58 46 38 36 36 32
58 56 60 75 75 67 45 40 57 57 79 57 14 14 0 nan 1 1 4 14 14 41 84 132 132 88 31 3 2 2 nan nan nan nan nan nan 2 2 40 135 135 277 334 437 437 388 323 230 230 220 161 126 147 147 138 121 121 151 157 169 169 157 142 138 138 143 145 125 100 100 88 72 62 62 54 58 45 45 34 29 29 30 28 25 25 24
55 75 72 51 51 52 55 65 69 69 57 30 11 11 5 4 8 8 26 56 56 94 113 54 54 4 nan nan 0 0 0 2 1 1 1 0 2 2 58 139 139 104 73 49 49 2 89 136 136 124 102 75 86 86 90 91 91 117 135 141 141 141 135 138 138 148 141 123 104 104 90 81 70 70 70 61 48 48 33 22 22 25 24 24 24 23
49 72 56 29 29 16 22 28 25 25 18 10 9 9 9 12 22 22 48 85 85 85 39 4 4 nan nan nan 1 1 5 6 6 6 7 11 84 84 211 207 207 74 9 nan nan nan 4 14 14 8 43 30 51 51 53 81 81 102 113 121 121 118 125 131 131 135 139 122 110 110 92 86 83 83 80 72 65 65 43 26 26 24 22 20 20 20
43 42 21 2 2 nan 3 6 4 4 5 3 9 9 17 20 50 50 76 78 78 42 7 0 0 0 0 1 5 5 12 10 10 10 16 43 147 147 194 108 108 4 nan nan nan 0 8 10 10 2 2 3 6 6 22 45 45 106 109 117 117 126 131 133 133 134 133 126 117 117 103 93 91 91 90 84 69 69 53 33 33 27 23 23 23 19
33 12 nan nan nan 3 2 1 1 1 3 5 11 11 20 35 67 67 71 39 39 14 6 4 4 4 5 7 12 12 14 8 5 5 31 71 144 144 145 48 48 0 nan 0 0 0 1 3 3 1 1 13 46 46 61 54 54 114 137 144 144 150 149 163 163 156 147 144 131 131 114 102 93 93 91 82 66 66 53 40 40 31 29 25 25 20
14 6 1 2 2 4 3 3 4 4 6 8 13 13 24 49 58 58 31 22 22 12 8 6 6 8 19 18 21 21 24 16 23 23 67 89 110 110 65 13 13 nan nan nan nan 0 5 1 1 0 3 33 64 64 74 100 100 162 211 211 211 185 193 172 172 162 170 165 162 162 142 121 103 103 88 72 61 61 52 39 39 34 33 27 27 23
9 2 1 1 1 1 2 4 5 5 7 9 14 14 25 43 34 34 21 18 18 16 13 13 13 16 33 31 33 33 40 72 102 102 110 91 56 56 21 1 1 nan nan 6 6 15 7 2 2 3 15 71 92 92 127 187 187 206 209 177 177 142 130 125 125 131 133 155 160 160 158 142 109 109 83 67 54 54 44 36 36 33 34 32 32 26
2 nan 0 1 1 4 7 8 8 8 9 9 22 22 31 36 29 29 24 20 20 14 9 12 12 24 39 48 44 44 48 130 130 130 79 41 10 10 0 nan nan 0 19 25 25 6 2 5 5 32 76 126 154 154 176 175 175 158 125 93 93 66 50 57 57 69 103 120 140 140 155 148 104 104 75 61 52 52 35 32 32 34 37 34 34 29
nan 1 5 11 11 15 16 15 19 19 29 38 37 37 34 31 34 34 26 16 16 8 6 9 9 17 24 30 20 20 21 69 71 71 33 7 0 0 nan 3 3 45 36 14 14 nan 2 8 8 46 107 128 151 151 155 123 123 92 68 52 52 39 33 38 38 52 83 109 136 136 142 134 99 99 71 52 44 44 32 31 31 31 33 31 31 28
6 11 17 25 25 28 22 20 33 33 67 43 10 10 25 26 18 18 16 12 12 5 5 8 8 13 17 15 9 9 10 33 29 29 5 1 1 1 7 37 37 35 1 nan nan nan 2 6 6 15 70 114 122 122 113 96 96 73 64 54 54 48 52 59 59 72 93 113 135 135 125 112 92 92 70 55 39 39 34 29 29 27 25 24 24 25
20 24 28 30 30 30 41 36 89 89 73 44 18 18 9 6 5 5 7 4 4 3 8 8 8 11 13 21 21 21 24 40 23 23 8 5 13 13 56 42 42 nan nan nan nan 1 3 8 8 16 61 110 114 114 98 82 82 71 65 63 63 70 79 124 124 110 134 136 130 130 116 92 72 72 58 44 35 35 28 25 25 25 22 21 21 20
36 36 41 47 47 63 55 22 22 22 29 10 3 3 nan 1 2 2 3 6 6 5 10 15 15 16 22 36 44 44 42 23 8 8 8 9 31 31 30 nan nan nan 1 1 1 3 7 22 22 32 64 98 88 88 83 79 79 70 67 63 63 64 78 92 92 79 85 103 108 108 89 64 54 54 43 31 28 28 24 24 24 24 22 20 20 20
47 47 52 75 75 78 31 12 2 2 0 nan nan nan nan 2 5 5 9 13 13 15 22 21 21 27 35 51 57 57 29 12 18 18 22 21 12 12 nan nan nan 2 3 4 4 9 17 25 25 23 27 78 84 84 81 80 80 73 61 53 53 45 43 50 50 53 62 78 85 85 59 49 38 38 31 27 22 22 22 22 22 23 20 18 18 16
45 50 84 108 108 74 30 7 nan nan nan nan nan nan 3 18 32 32 29 27 27 31 38 35 35 35 31 61 33 33 13 26 70 70 21 4 nan nan nan nan nan 1 6 10 10 20 28 24 24 18 18 44 77 77 76 67 67 52 42 38 38 38 40 49 49 60 63 61 55 55 44 31 29 29 25 20 19 19 17 20 20 21 19 17 17 14
78 80 113 167 167 185 153 92 64 64 34 1 2 2 10 25 31 31 23 28 28 32 32 32 32 33 34 25 10 10 9 68 47 47 nan nan nan nan nan 0 0 5 16 20 20 28 28 20 20 16 12 18 58 58 54 42 42 39 41 51 51 58 65 59 59 66 62 51 38 38 31 26 23 23 20 16 12 12 12 15 15 19 18 14 14 11
154 174 229 259 259 197 118 86 86 86 104 78 29 29 21 20 16 16 19 18 18 17 20 24 24 29 21 8 5 5 28 82 29 29 1 0 2 2 0 3 3 17 35 24 24 15 20 16 16 8 4 1 14 14 42 40 40 53 77 70 70 72 62 46 46 35 39 36 31 31 25 20 16 16 11 9 7 7 7 10 10 15 15 12 12 11
175 211 244 196 196 112 77 68 75 75 79 91 109 109 58 15 11 11 15 12 12 12 21 19 19 20 17 12 21 21 59 57 8 8 nan 6 7 7 6 15 15 33 31 13 13 11 26 10 10 2 1 nan 1 1 36 69 69 90 92 53 53 16 15 20 20 26 31 30 24 24 19 14 11 11 8 8 7 7 7 9 9 13 14 12 12 6
186 221 184 116 116 78 64 57 57 57 65 73 86 86 48 11 11 11 16 16 16 15 23 25 25 19 14 20 35 35 42 17 3 3 5 18 13 13 11 23 23 26 12 1 1 0 3 0 0 0 1 7 6 6 40 93 93 89 48 22 22 6 6 12 12 24 29 26 20 20 15 13 12 12 12 11 9 9 9 10 10 12 11 10 10 6
132 145 102 72 72 51 33 9 29 29 53 65 71 71 50 18 15 15 19 21 21 24 35 39 39 27 20 31 31 31 12 1 2 2 19 25 22 22 17 20 20 12 3 nan nan nan nan 0 0 0 2 15 11 11 17 26 26 9 7 15 15 12 17 23 23 34 32 29 23 23 19 16 14 14 13 11 9 9 8 8 8 8 9 8 8 6
59 42 9 11 11 4 0 0 16 16 45 67 69 69 55 27 26 26 35 36 36 40 40 37 37 33 32 29 17 17 5 2 13 13 25 26 21 21 24 17 17 6 0 nan nan nan 1 nan nan 2 3 3 2 2 nan nan nan nan nan 1 1 9 27 38 38 41 40 34 26 26 19 17 16 16 18 11 5 5 4 5 5 5 6 7 7 7
30 7 nan nan nan 0 2 3 4 4 8 13 21 21 40 47 48 48 49 57 57 58 53 48 48 44 39 31 17 17 16 8 19 19 30 31 31 31 18 4 4 1 nan nan nan 2 2 4 4 2 1 0 nan nan 0 1 1 0 2 3 3 7 36 49 49 44 30 26 20 20 19 25 29 29 12 12 8 8 2 2 2 2 2 6 6 7
27 6 1 3 3 4 6 6 6 6 9 8 11 11 17 28 49 49 44 48 48 61 53 46 46 38 24 20 16 16 14 5 22 22 40 27 28 28 13 3 3 0 nan nan nan 4 7 5 5 3 0 0 0 0 nan 0 0 1 2 11 11 13 28 30 30 15 15 13 13 13 20 25 23 23 7 nan 0 0 4 4 4 7 2 2 2 2
11 9 9 6 6 6 4 5 7 7 7 8 16 16 17 16 22 22 31 35 35 37 33 24 24 22 18 13 13 13 7 3 14 14 34 34 27 27 7 1 1 0 nan 5 5 9 6 4 4 1 0 nan nan nan nan nan nan 0 5 22 22 26 19 14 14 7 4 5 7 7 13 16 17 17 8 1 nan nan nan 0 0 1 0 nan nan nan
7 12 8 7 7 7 6 6 8 8 10 9 10 10 14 13 10 10 15 19 19 18 15 12 12 12 7 6 12 12 7 nan 2 2 40 39 17 17 5 1 1 nan 4 11 11 9 6 4 4 7 1 0 nan nan nan nan nan 0 16 36 36 35 20 7 7 4 1 3 9 9 11 7 6 6 5 4 2 2 2 1 1 0 nan nan nan nan
7 9 10 7 7 6 5 8 8 8 7 4 4 4 5 6 6 6 6 6 6 13 16 7 7 8 4 5 6 6 5 nan 6 6 52 33 9 9 3 1 1 7 9 12 12 11 4 3 3 8 9 2 nan nan nan nan nan 0 9 21 21 24 16 7 7 0 nan 3 8 8 9 6 3 3 3 7 3 3 2 2 2 1 0 nan nan nan
8 10 10 4 4 4 6 2 3 3 4 2 2 2 3 4 4 4 2 0 0 0 5 16 16 12 22 6 3 3 2 1 16 16 46 14 6 6 2 8 8 15 9 10 10 9 5 2 2 3 3 1 nan nan nan nan nan nan 0 3 3 11 6 3 3 nan 0 4 8 8 9 5 2 2 2 8 3 3 4 5 5 2 2 0 0 nan
9 8 8 4 4 3 2 2 3 3 3 1 3 3 3 2 2 2 2 1 1 0 2 5 5 5 31 46 14 14 6 13 12 12 7 8 6 6 9 9 9 14 12 6 6 5 4 3 3 1 0 nan 1 1 1 nan nan nan nan 0 0 3 6 1 1 nan 1 4 7 7 7 5 1 1 nan nan nan nan nan nan nan 1 3 0 0 3
8 8 5 7 7 6 3 2 3 3 2 3 5 5 4 3 5 5 2 1 1 1 4 4 4 4 2 3 25 25 42 17 5 5 1 3 6 6 9 9 9 9 6 5 5 3 3 1 1 0 0 nan nan nan nan nan nan nan nan nan nan 0 4 nan nan nan 1 2 4 4 3 2 nan nan nan nan nan nan nan nan nan nan nan nan nan 3
10 7 6 12 12 4 4 4 3 3 1 4 10 10 7 6 3 3 2 1 1 2 0 0 0 nan 0 14 35 35 35 12 8 8 1 1 4 4 8 1 1 6 5 4 4 1 nan nan nan 0 2 0 nan nan nan nan nan 0 2 0 0 1 6 nan nan nan nan 1 1 1 1 0 0 0 nan nan nan nan nan nan nan nan nan nan nan nan
9 6 6 5 5 8 9 3 2 2 3 3 2 2 2 3 2 2 1 nan nan 0 nan nan nan nan 4 12 13 13 6 1 2 2 0 1 0 0 3 6 6 10 2 nan nan nan nan nan nan 0 0 0 0 0 0 0 0 4 6 4 4 4 8 2 2 nan nan 0 0 0 2 1 1 1 nan nan nan nan nan nan nan nan nan nan nan nan
20 13 4 3 3 2 0 0 4 4 6 1 1 1 1 0 0 0 1 nan nan nan nan nan nan 3 16 13 2 2 nan nan nan nan 1 nan 1 1 2 1 1 nan nan nan nan nan 0 0 0 1 0 0 nan nan nan 0 0 2 5 5 5 11 11 0 0 nan nan nan nan nan 2 1 nan nan 0 nan nan nan nan nan nan 1 0 nan nan nan
9 5 3 1 1 0 2 4 7 7 4 nan nan nan nan nan 1 1 3 1 1 nan 0 3 3 16 13 2 nan nan nan nan 1 1 4 0 1 1 nan nan nan nan nan nan nan nan nan 1 1 0 nan 0 0 0 0 1 1 2 2 12 12 15 4 nan nan nan nan nan nan nan nan 0 nan nan nan nan nan nan nan nan nan 3 2 nan nan nan
4 1 1 1 1 2 5 3 2 2 nan nan nan nan nan nan 3 3 4 0 0 1 1 7 7 11 3 nan nan nan nan nan 0 0 4 17 0 0 nan nan nan nan nan nan nan nan nan nan nan nan 1 1 1 1 2 1 1 0 nan 10 10 8 0 nan nan nan nan nan nan nan nan nan nan nan nan nan nan nan nan nan nan nan nan nan nan nan
0 2 4 5 5 5 3 1 0 0 nan nan nan nan nan nan 4 4 1 nan nan 0 4 10 10 3 nan nan nan nan nan nan nan nan 2 18 27 27 6 1 1 1 nan nan nan nan nan nan nan nan nan 0 0 0 0 0 0 0 10 9 9 nan nan nan nan nan nan nan nan nan nan nan nan nan nan nan nan nan nan nan nan nan nan nan nan nan
3 2 3 3 3 1 4 2 0 0 nan nan nan nan nan nan nan nan 0 nan nan 0 8 4 4 1 nan nan nan nan 0 1 3 3 2 nan 3 3 10 13 13 8 3 2 2 1 0 1 1 1 1 nan nan nan nan 0 0 4 4 nan nan nan nan nan nan nan nan nan nan nan nan nan nan nan nan nan nan nan nan nan nan nan nan nan nan nan
1 1 0 nan nan nan 0 1 nan nan nan nan nan nan nan nan nan nan nan 0 0 1 4 2 2 0 0 0 0 0 2 5 3 3 0 nan nan nan 1 5 5 9 9 5 5 3 2 2 2 3 1 nan nan nan 2 4 4 4 nan nan nan nan nan nan nan nan nan nan nan nan nan nan nan nan nan nan nan nan nan nan nan nan nan nan nan nan
3 1 nan nan nan nan nan nan nan nan nan nan nan nan nan nan nan nan nan 2 2 3 6 1 1 0 1 0 2 2 6 8 3 3 nan nan nan nan nan 0 0 2 6 8 8 8 3 1 1 3 2 nan 0 0 1 nan nan nan nan nan nan nan nan nan nan nan nan nan nan nan nan nan nan nan nan nan nan nan nan nan nan nan nan nan nan nan
nan nan nan nan nan nan nan nan nan nan nan nan nan nan nan 2 26 26 1 0 0 1 1 0 0 2 1 1 5 5 15 11 1 1 nan nan nan nan 0 nan nan 0 0 1 1 2 2 2 2 2 1 0 nan nan nan nan nan nan nan nan nan nan nan nan nan nan nan nan nan nan nan nan nan nan nan nan nan nan nan nan nan nan nan nan nan nan
nan nan nan nan nan nan nan nan nan nan nan nan nan nan nan nan nan nan nan 0 0 1 0 0 0 3 2 3 5 5 7 2 nan nan nan nan nan nan nan 0 0 nan nan nan nan nan nan nan nan 2 12 13 1 1 nan nan nan nan nan nan nan nan nan nan nan nan nan nan nan nan nan nan nan nan nan nan nan nan nan nan nan nan nan nan nan nan
1 nan nan nan nan nan nan nan nan nan nan nan nan nan nan nan nan nan 1 1 1 1 0 1 1 2 3 4 6 6 7 1 nan nan nan nan nan nan nan nan nan nan nan nan nan 0 nan nan nan nan 6 33 10 10 nan nan nan nan nan nan nan nan nan nan nan nan nan nan nan nan nan nan nan nan nan nan nan nan nan nan nan nan nan nan nan nan
CIN
-4 -5 -13 -25 -25 -8 -0 -8 -5 -5 -7 -10 -8 -8 -21 -16 -47 -47 -28 -14 -14 -19 -12 -16 -16 -13 -10 -0 -0 -0 -0 -0 -0 -0 -0 -0 -0 -0 -0 -0 -0 -0 -0 -0 -0 -0 -0 -0 -0 -0 -0 -0 -0 -0 -0 -0 -0 -0 -0 -0 -0 -0 -0 -0 -0 -0 -0 -0 -0 -0 -0 -0 -0 -0 -0 -0 -0 -0 -0 -0 -0 -0 -0 -0 -0 -0
-0 -6 -14 -13 -13 -0 -0 -6 -5 -5 -0 -0 -0 -0 -0 nan -26 -26 -26 -11 -11 -12 -8 -6 -6 -6 -14 -6 -0 -0 -0 -0 -0 -0 -0 -0 -0 -0 -0 -0 -0 -0 -0 -0 -0 -0 -0 -0 -0 -0 -0 -0 -0 -0 -0 -0 -0 -0 -0 -0 -0 -0 -0 -0 -0 -0 -0 -0 -0 -0 -0 -0 -0 -0 -0 -0 -0 -0 -0 -0 -0 -0 -0 -0 -0 -0
-0 -0 -2 -9 -9 -0 -0 -1 nan nan nan -4 -0 -0 -0 -0 -0 -0 -16 -6 -6 -9 -8 -5 -5 -10 -21 -28 -0 -0 -0 -0 -0 -0 -0 -0 -0 -0 -0 -0 -0 -0 -0 -0 -0 -0 -0 -0 -0 -0 -0 -0 -0 -0 -0 -0 -0 -0 -0 -0 -0 -0 -0 -0 -0 -0 -0 -0 -0 -0 -0 -0 -0 -0 -0 -0 -0 -0 -0 -0 -0 -0 -0 -0 -0 -0
-4 -0 -0 -5 -5 -0 -0 -4 -1 -1 -13 -4 -1 -1 -0 -0 -0 -0 -13 -11 -11 -10 -6 nan nan nan nan -26 -0 -0 -0 -0 -0 -0 -0 -0 -0 -0 -0 -0 -0 -0 -0 -0 -0 -0 -0 -0 -0 -0 -0 -0 -0 -0 -0 -0 -0 -0 -1 -0 -0 -0 -0 -0 -0 -0 -0 -0 -0 -0 -0 -0 -0 -0 -0 -0 -0 -0 -0 -0 -0 -0 -0 -0 -0 -0
-6 -0 -0 -0 -0 -0 -1 -3 -8 -8 -6 -12 -11 -11 -8 -7 -14 -14 -29 nan nan -12 nan nan nan nan nan nan -14 -14 -0 -0 -0 -0 -0 -0 -0 -0 -0 -0 -0 -0 -0 -0 -0 -0 -0 -0 -0 -0 -0 -0 -0 -0 -0 -0 -0 -0 -2 -1 -1 -0 -0 -0 -0 -1 -1 -1 -0 -0 -0 -0 -0 -0 -0 -0 -0 -0 -0 -0 -0 -0 -0 -0 -0 -0
-0 -0 -0 -0 -0 -2 -5 -5 -0 -0 -9 -25 -22 -22 -17 -32 -31 -31 -34 -27 -27 -20 -18 nan nan nan nan nan -1 -1 -0 -0 -0 -0 -0 -0 -0 -0 -0 -0 -0 -0 -0 -0 -0 -0 -0 -0 -0 -0 -0 -0 -0 -0 -0 -0 -0 -0 -0 -0 -0 -1 -2 -2 -2 -2 -1 -0 -0 -0 -0 -0 -0 -0 -0 -0 -0 -0 -0 -0 -0 -0 -0 -0 -0 -0
-0 -0 -0 -8 -8 -4 -3 -8 -11 -11 -21 -27 -41 -41 -52 -47 -34 -34 -25 -20 -20 -19 -24 nan nan -14 -4 -0 -0 -0 -0 -0 -0 -0 -0 -0 -0 -0 -0 -0 -0 -0 -0 -0 -0 -0 -0 -0 -0 -0 -0 -0 -0 -0 -0 -0 -0 -0 -0 -0 -0 -1 -1 -1 -1 -2 -2 -0 -0 -0 -0 -0 -0 -0 -0 -0 -0 -0 -0 -0 -0 -0 -0 -1 -1 -0
-5 -4 -4 -0 -0 -0 -0 -11 -24 -24 nan nan -11 -11 -5 -5 -20 -20 -48 -58 -58 -52 -32 -28 -28 -29 -1 -1 -0 -0 -0 -2 -1 -1 -0 -0 -0 -0 -0 -0 -0 -0 -0 -0 -0 -0 -0 -0 -0 -0 -0 -0 -0 -0 -0 -0 -0 -0 -1 -2 -2 -0 -1 -2 -2 -1 -1 -1 -0 -0 -0 -0 -0 -0 -0 -0 -0 -0 -0 -0 -0 -0 -0 -0 -0 -0
-10 -4 -4 -6 -6 -0 -3 -4 -27 -27 -45 -24 -9 -9 -1 -4 -10 -10 -29 nan nan nan -30 -23 -23 -6 -0 -0 -0 -0 -0 -0 -1 -1 -1 nan nan nan -5 -0 -0 -0 -0 -0 -0 -0 -0 -0 -0 -0 -0 -0 -0 -0 -0 -0 -0 -0 -0 -0 -0 -0 -0 -2 -2 -2 -1 -2 -2 -2 -0 -0 -0 -0 -0 -0 -0 -0 -0 -0 -0 -0 -0 -0 -0 -0
-11 -4 -0 -5 -5 -7 -0 -7 -17 -17 -37 -25 -13 -13 -2 nan nan nan nan nan nan nan -17 -22 -22 -13 -7 -1 -0 -0 -1 -0 -0 -0 -0 -0 -0 -0 -0 -0 -0 -2 -0 -0 -0 -0 -0 -0 -0 -0 -0 -0 -0 -0 -0 -0 -0 -0 -0 -0 -0 -0 -1 -2 -2 -1 -0 -0 -0 -0 -0 -0 -0 -0 -0 -0 -0 -0 -0 -0 -0 -0 -0 -0 -0 -0
-5 -3 -2 -2 -2 -5 -7 -8 -0 -0 -17 -8 -3 -3 nan nan nan nan -14 -8 -8 -0 -0 -12 -12 -9 -1 -0 -0 -0 -6 -28 -38 -38 -17 -3 -0 -0 -0 -0 -0 -0 -0 -0 -0 -0 -0 -0 -0 -0 -0 -0 -0 -0 -0 -0 -0 -0 -0 -0 -0 -0 -2 -2 -2 -1 -0 -0 -0 -0 -0 -0 -0 -0 -0 -2 -3 -3 -0 -0 -0 -0 -0 -0 -0 -0
-2 -5 -9 -7 -7 -4 -5 -9 -16 -16 -11 -6 -4 -4 -10 nan -30 -30 -16 -7 -7 -5 -7 -4 -4 -5 -11 -5 -4 -4 nan nan nan nan nan nan -28 -28 -23 -19 -19 -3 -0 -0 -0 -0 -0 -0 -0 -0 -1 -1 -5 -5 -3 -6 -6 -1 -1 -4 -4 -4 -4 -3 -3 -1 -0 -0 -0 -0 -0 -0 -0 -0 -0 -1 -4 -4 -2 -0 -0 -0 -0 -0 -0 -0
-7 -9 -6 -3 -3 -4 -7 -9 -11 -11 -14 -13 -12 -12 -10 -12 -23 -23 -25 -12 -12 -9 -5 -4 -4 -12 nan nan -26 -26 -27 -32 -42 -42 -44 -52 -54 -54 -38 -16 -16 -3 -3 -22 -22 -48 -18 -0 -0 -0 -0 -0 -0 -0 -0 -7 -7 -6 -4 -6 -6 -5 -5 -5 -5 -3 -1 -0 -0 -0 -0 -0 -0 -0 -0 -0 -3 -3 -3 -0 -0 -0 -0 -0 -0 -0
-7 -8 -3 -3 -3 -4 -10 -13 -10 -10 -9 -12 -15 -15 -18 -21 -23 -23 -14 -7 -7 -8 -9 -11 -11 nan nan nan -36 -36 -39 -30 -33 -33 -44 -50 -36 -36 -15 -3 -3 -1 -21 nan nan nan -34 -25 -25 -22 -0 -0 -0 -0 -4 -1 -1 -0 -0 -0 -0 -0 -2 -4 -4 -3 -2 -0 -0 -0 -0 -0 -0 -0 -0 -0 -1 -1 -2 -1 -1 -0 -0 -0 -0 -0
-5 -3 -5 -7 -7 nan -12 -15 -15 -15 -14 -20 -21 -21 -16 -21 -14 -14 -6 -4 -4 -6 -17 -27 -27 -25 -24 -27 -37 -37 -36 -27 -28 -28 -38 -36 -21 -21 -11 -6 -6 -27 nan nan nan -53 -29 -42 -42 -47 -39 -22 -16 -16 -14 -6 -6 -0 -0 -0 -0 -0 -3 -3 -3 -4 -3 -1 -0 -0 -0 -0 -0 -0 -0 -0 -0 -0 -1 -1 -1 -0 -0 -0 -0 -0
-3 -6 nan nan nan -7 -11 -15 -14 -14 -16 -21 -18 -18 -16 -13 -7 -7 -4 -5 -5 -15 -16 -15 -15 -13 -13 -19 -29 -29 -27 -22 -26 -26 -29 -22 -14 -14 -4 -2 -2 -28 nan -43 -43 -39 -44 -54 -54 -45 -41 -11 -0 -0 -0 -0 -0 -0 -0 -0 -0 -0 -0 -0 -0 -0 -0 -0 -0 -0 -0 -0 -0 -0 -0 -0 -0 -0 -1 -1 -1 -0 -0 -0 -0 -0
-2 -3 -6 -8 -8 -8 -8 -15 -15 -15 -19 -19 -22 -22 -17 -10 -6 -6 -9 -7 -7 -15 -15 -14 -14 -8 -5 -6 -22 -22 -30 -23 -19 -19 -14 -7 -9 -9 -11 -10 -10 nan nan nan nan -37 -42 -43 -43 -32 -39 -7 -0 -0 -0 -0 -0 -0 -0 -0 -0 -0 -0 -0 -0 -0 -0 -0 -0 -0 -0 -0 -0 -0 -0 -0 -0 -0 -0 -0 -0 -0 -0 -0 -0 -0
-1 -5 -11 -13 -13 -12 -9 -14 -21 -21 -28 -14 -15 -15 -15 -12 -8 -8 -8 -8 -8 -6 -11 -9 -9 -7 -1 -6 -6 -6 -24 -17 -6 -6 -3 -3 -12 -12 -37 -42 -42 nan nan -24 -24 -24 -35 -30 -30 -28 -27 -0 -0 -0 -0 -0 -0 -0 -0 -0 -0 -0 -0 -0 -0 -0 -0 -0 -0 -0 -0 -0 -0 -0 -0 -0 -1 -1 -0 -0 -0 -0 -0 -0 -0 -0
-3 nan -16 -14 -14 -13 -9 -8 -7 -7 -9 -12 -5 -5 -4 -7 -8 -8 -8 -7 -7 -7 -10 -8 -8 -4 -1 -1 -3 -3 -25 -10 -5 -5 -3 -4 -11 -11 -39 nan nan -21 -16 -15 -15 -29 -42 -39 -39 -21 -0 -0 -0 -0 -0 -0 -0 -0 -0 -0 -0 -0 -0 -0 -0 -0 -0 -0 -0 -0 -0 -0 -0 -0 -0 -0 -0 -0 -0 -0 -0 -0 -0 -0 -0 -0
nan -14 -9 -9 -9 -6 -5 -3 -5 -5 -9 -5 -0 -0 -0 -3 -5 -5 -9 -13 -13 -15 -14 -8 -8 -5 -3 -6 -19 -19 -34 -19 -7 -7 -6 -9 -16 -16 nan -14 -14 -11 -6 -8 -8 nan -48 -31 -31 -16 -4 -0 -0 -0 -0 -0 -0 -0 -0 -0 -0 -0 -0 -0 -0 -0 -0 -0 -2 -2 -1 -0 -0 -0 -0 -0 -0 -0 -0 -0 -0 -0 -0 -0 -0 -0
-12 -7 -8 -6 -6 -3 -4 -6 -11 -11 -2 -0 -0 -0 -2 -4 -9 -9 -11 -13 -13 -15 -14 -8 -8 -5 -6 -8 -16 -16 -24 -8 -0 -0 -9 -12 -12 -12 -19 -8 -8 -0 -9 nan nan nan -45 -23 -23 -50 -14 -0 -0 -0 -0 -0 -0 -0 -0 -0 -0 -0 -0 -0 -0 -0 -0 -0 -1 -1 -1 -0 -0 -0 -0 -0 -0 -0 -0 -0 -0 -0 -0 -0 -0 -0
-7 -5 -10 -14 -14 -9 -1 -9 -0 -0 -0 -0 -3 -3 -7 -11 -17 -17 -16 -13 -13 -13 -9 -7 -7 -5 -5 -3 -9 -9 -12 -6 -4 -4 -9 -8 -12 -12 -6 -1 -1 nan nan nan nan -37 -31 -13 -13 -17 -1 -0 -0 -0 -0 -0 -0 -0 -0 -0 -0 -0 -0 -0 -0 -0 -0 -0 -0 -0 -0 -0 -0 -0 -0 -0 -0 -0 -0 -0 -0 -0 -0 -0 -0 -0
-7 -5 -8 -16 -16 -13 -7 -3 -0 -0 -2 -11 -11 -11 nan -25 -19 -19 -15 -12 -12 -12 -7 -6 -6 -7 -10 -9 -8 -8 -8 -12 -21 -21 -13 -4 -3 -3 -5 nan nan nan -14 -21 -21 -24 -19 -15 -15 -14 -2 -0 -0 -0 -0 -0 -0 -0 -0 -0 -0 -0 -0 -0 -0 -0 -0 -0 -0 -0 -0 -0 -0 -0 -0 -0 -0 -0 -0 -0 -0 -0 -0 -0 -0 -0
-7 -11 -16 -15 -15 -9 -5 -1 -8 -8 -19 nan nan nan nan -34 -19 -19 -15 -12 -12 -12 -9 -11 -11 -8 -7 -5 -3 -3 -12 -34 -35 -35 -12 -1 -3 -3 nan nan nan -12 -15 -21 -21 -22 -9 -10 -10 -15 -12 -0 -0 -0 -0 -0 -0 -0 -0 -0 -0 -0 -0 -0 -0 -0 -0 -0 -0 -0 -0 -0 -0 -0 -0 -0 -0 -0 -0 -0 -0 -0 -0 -0 -0 -0
-14 -21 -17 -10 -10 -1 -0 -18 nan nan nan nan nan nan -32 -14 -3 -3 -8 -11 -11 -7 -4 -4 -4 -2 -5 -3 -9 -9 -30 -43 -18 -18 -2 -9 nan nan nan nan nan -20 -17 -21 -21 -19 -10 -9 -9 -15 -20 -0 -0 -0 -0 -0 -0 -0 -0 -0 -0 -0 -0 -0 -0 -0 -0 -0 -0 -0 -0 -0 -0 -0 -0 -0 -0 -0 -0 -0 -0 -0 -0 -0 -0 -0
-0 -14 -18 -1 -1 -0 -0 -0 -0 -0 -0 -11 -17 -17 -10 -4 -4 -4 -8 -6 -6 -4 -3 -2 -2 -2 -5 -9 -16 -16 -36 -34 -6 -6 nan nan nan nan nan -29 -29 -21 -12 -15 -15 -14 -9 -11 -11 -18 -24 -15 -0 -0 -0 -0 -0 -0 -0 -0 -0 -0 -0 -0 -0 -0 -0 -0 -0 -0 -0 -0 -0 -0 -0 -0 -0 -0 -0 -0 -0 -0 -0 -0 -0 -0
-0 -0 -0 -0 -0 -0 -0 -0 -0 -0 -0 -0 -0 -0 -4 -9 -6 -6 -2 -2 -2 -3 -1 -1 -1 -2 -6 -12 -17 -17 -27 -11 -3 -3 -24 -3 -7 -7 -20 -25 -25 -15 -6 -11 -11 -16 -9 -12 -12 -25 -29 -28 -4 -4 -0 -0 -0 -0 -0 -0 -0 -0 -0 -0 -0 -0 -0 -0 -0 -0 -0 -0 -0 -0 -0 -0 -0 -0 -0 -0 -0 -0 -0 -0 -0 -0
-0 -0 -0 -0 -0 -0 -0 -0 -0 -0 -0 -0 -0 -0 -0 -7 -3 -3 -0 -0 -0 -2 -0 -1 -1 -3 -5 -6 -9 -9 -16 -8 -18 -18 nan -12 -8 -8 -17 -24 -24 -12 -5 -9 -9 -13 -4 -12 -12 -20 -20 nan -24 -24 -0 -0 -0 -0 -0 -0 -0 -0 -0 -0 -0 -0 -0 -0 -0 -0 -0 -0 -0 -0 -0 -0 -0 -0 -0 -0 -0 -0 -0 -0 -0 -2
-0 -0 -0 -0 -0 -0 -0 -0 -0 -0 -0 -0 -0 -0 -0 -9 -3 -3 -2 -2 -2 -3 -0 -0 -0 -2 -4 -4 -5 -5 -14 -18 -18 -18 -28 -12 -8 -8 -17 -20 -20 -14 -8 -17 -17 -19 -16 -24 -24 -33 -28 -14 -26 -26 -17 -0 -0 -0 -0 -0 -0 -0 -0 -0 -0 -0 -0 -0 -0 -0 -0 -0 -0 -0 -0 -0 -0 -0 -0 -0 -0 -0 -0 -0 -0 -2
-0 -0 -0 -0 -0 -0 -0 -0 -0 -0 -0 -0 -0 -0 -0 -6 -5 -5 -4 -4 -4 -1 -0 -0 -0 -0 -3 -2 -5 -5 -12 -23 -30 -30 -30 -8 -5 -5 -16 -15 -15 -14 -15 nan nan nan nan -27 -27 -35 -31 -15 -30 -30 -32 -21 -21 -28 -12 -0 -0 -0 -0 -0 -0 -0 -0 -0 -0 -0 -0 -0 -0 -0 -0 -0 -0 -0 -0 -0 -0 -0 -1 -2 -2 -2
-2 -3 -14 -2 -2 -3 -11 -21 -0 -0 -0 -0 -0 -0 -0 -6 -7 -7 -5 -4 -4 -1 -0 -0 -0 -1 -1 -2 -5 -5 -11 -17 -28 -28 -27 -6 -4 -4 -8 -12 -12 -20 -31 nan nan nan -11 nan nan -25 -33 -31 -33 -33 nan nan nan nan nan -10 -10 -0 -0 -0 -0 -0 -0 -0 -0 -0 -0 -0 -0 -0 -0 -0 -0 -0 -0 -0 -0 -0 -1 -1 -1 -2
-4 -10 nan nan nan -18 -10 -6 -9 -9 -7 -6 -4 -4 -0 -0 -5 -5 -8 -5 -5 -3 -1 -0 -0 -0 -0 -1 -2 -2 -3 -15 -7 -7 -19 -9 -6 -6 -12 -24 -24 -31 nan nan nan -12 -6 -6 -6 -13 -19 -20 nan nan -26 -32 -32 -48 -26 -12 -12 -9 -0 -0 -0 -0 -0 -0 -0 -0 -0 -0 -0 -0 -0 -4 -29 -29 -0 -0 -0 -0 -1 -1 -1 -1
-1 -9 -16 -9 -9 -10 -6 -10 -12 -12 -6 -12 -10 -10 -9 -4 -0 -0 -7 -9 -9 -4 -2 -1 -1 -0 -2 -3 -3 -3 -5 -15 -1 -1 -8 -10 -4 -4 -12 -28 -28 -35 nan nan nan -15 -9 -7 -7 -11 -17 -19 -19 -19 nan -32 -32 -30 -23 -9 -9 -6 -2 -1 -1 -1 -0 -0 -0 -0 -0 -0 -0 -0 -0 nan -37 -37 -10 -0 -0 -0 -0 -1 -1 -2
-9 -10 -8 -9 -9 -8 -11 -15 -11 -11 -10 -9 -4 -4 -6 -7 -7 -7 -5 -8 -8 -8 -5 -3 -3 -1 -1 -2 -3 -3 -3 -11 -0 -0 -8 -6 -4 -4 -15 -29 -29 -31 nan -9 -9 -9 -11 -11 -11 -12 -16 nan nan nan nan nan nan -30 -23 -6 -6 -2 -2 -1 -1 -2 -2 -0 -0 -0 -0 -0 -0 -0 -0 -0 nan nan nan -13 -13 -9 -8 nan nan nan
-8 -3 -4 -7 -7 -8 -10 -11 -8 -8 -6 -7 -7 -7 -6 -9 -11 -11 -10 -6 -6 -7 -7 -7 -7 -5 -3 -3 -2 -2 -0 nan -7 -7 -7 -3 -5 -5 -19 -26 -26 nan -8 -4 -4 -7 -10 -10 -10 -4 -9 -10 nan nan nan nan nan -36 -15 -3 -3 -1 -2 -4 -4 -2 -1 -0 -0 -0 -0 -0 -0 -0 -0 -0 -0 -0 -0 -0 -0 -0 nan nan nan nan
-6 -4 -3 -8 -8 -6 -7 -3 -3 -3 -2 -6 -9 -9 -11 -11 -10 -10 -11 -12 -12 -4 -2 -6 -6 -7 -8 -5 -2 -2 -2 nan -8 -8 -3 -2 -12 -12 -19 -14 -14 -9 -5 -3 -3 -5 -10 -9 -9 -3 -2 -4 nan nan nan nan nan -33 -17 -7 -7 -3 -3 -4 -4 -5 nan -0 -0 -0 -0 -0 -0 -0 -0 -0 -0 -0 -0 -0 -0 -0 -0 nan nan nan
-5 -4 -3 -9 -9 -8 -2 -6 -3 -3 -0 -4 -7 -7 -6 -8 -9 -9 -14 -25 -25 -19 -9 -3 -3 -4 -3 -8 -10 -10 -10 -14 -10 -10 -1 -3 -11 -11 -15 -8 -8 -4 -3 -3 -3 -5 -8 -10 -10 -6 -5 -7 nan nan nan nan nan nan -19 -16 -16 -6 -5 -5 -5 nan -0 -0 -0 -0 -0 -0 -0 -0 -0 -0 -0 -0 -0 -0 -0 -0 -0 -0 -0 nan
-5 -4 -5 -9 -9 -7 -5 -4 -1 -1 -1 -0 -5 -5 -5 -9 -16 -16 -12 -23 -23 -27 -17 -11 -11 -11 -5 -3 -13 -13 -15 -9 -4 -4 -9 -12 -12 -12 -8 -5 -5 -3 -3 -4 -4 -5 -8 -10 -10 -8 -7 nan -4 -4 -5 nan nan nan nan -16 -16 -11 -5 -8 -8 nan -0 -0 -0 -0 -0 -0 -1 -1 nan nan nan nan nan nan nan -0 -0 -1 -1 -0
-3 -3 -4 -3 -3 -4 -3 -2 -1 -1 -0 -5 -5 -5 -6 -7 -10 -10 -13 -18 -18 -19 -20 -18 -18 -17 -20 -16 -6 -6 -3 -5 -26 -26 -34 -26 -16 -16 -7 -3 -3 -4 -5 -6 -6 -12 -13 -12 -12 -10 -6 nan nan nan nan nan nan nan nan nan nan -12 -9 nan nan nan -0 -0 -0 -0 -0 -0 nan nan nan nan nan nan nan nan nan nan nan nan nan -0
-2 -3 -3 -0 -0 -3 -4 -1 -0 -0 -5 -6 -4 -4 -5 -4 -9 -9 -13 -14 -14 -11 -22 -26 -26 nan -22 -7 -2 -2 -2 -13 -20 -20 -36 -33 -19 -19 -6 -5 -5 -2 -4 -11 -11 -16 nan nan nan -3 -2 -4 nan nan nan nan nan -5 -0 -2 -2 -4 -6 nan nan nan nan -0 -0 -0 -0 -0 -1 -1 nan nan nan nan nan nan nan nan nan nan nan nan
-1 -3 -3 -2 -2 -0 -1 -1 -7 -7 -6 -7 -10 -10 -9 -5 -6 -6 -6 nan nan -14 nan nan nan nan -14 -10 -10 -10 -18 -31 -29 -29 -39 -33 -24 -24 -6 -4 -4 -5 -13 nan nan nan nan nan nan -3 -5 -5 -3 -3 -3 -4 -4 -0 -0 -0 -0 -2 -4 -8 -8 nan nan -0 -0 -0 -0 -0 -0 -0 nan nan nan nan nan nan nan nan nan nan nan nan
-0 -0 -1 -0 -0 -1 -0 -7 -5 -5 -5 -9 -9 -9 -8 -7 -5 -5 -5 nan nan nan nan nan nan -7 -5 -9 -19 -19 nan nan nan nan -35 nan -18 -18 -8 -11 -11 nan nan nan nan nan -2 -1 -1 -2 -4 -4 nan nan nan -2 -2 -0 -0 -0 -0 -1 -2 -9 -9 nan nan nan nan nan -0 -0 nan nan -1 nan nan nan nan nan nan -0 -1 nan nan nan
-0 -1 -0 -4 -4 -5 -3 -4 -3 -3 -5 nan nan nan nan nan -5 -5 -0 -6 -6 nan -8 -6 -6 -3 -4 -11 nan nan nan nan -29 -29 -25 -27 -15 -15 nan nan nan nan nan nan nan nan nan -1 -1 -3 nan -4 -3 -3 -2 -2 -2 -1 -1 -0 -0 -0 -2 nan nan nan nan nan nan nan nan -0 nan nan nan nan nan nan nan nan nan -0 -0 nan nan nan
-0 -4 -5 -7 -7 -7 -5 -5 -6 -6 nan nan nan nan nan nan -3 -3 -3 -6 -6 -5 -4 -4 -4 -5 -9 nan nan nan nan nan -32 -32 -22 -9 -18 -18 nan nan nan nan nan nan nan nan nan nan nan nan -3 -4 -2 -2 -1 -2 -2 -1 nan -2 -2 -1 -3 nan nan nan nan nan nan nan nan nan nan nan nan nan nan nan nan nan nan nan nan nan nan nan
-6 -4 -0 -2 -2 -2 -4 -5 -6 -6 nan nan nan nan nan nan -3 -3 -5 nan nan -4 -3 -4 -4 -8 nan nan nan nan nan nan nan nan -24 -5 -1 -1 -5 -7 -7 -7 nan nan nan nan nan nan nan nan nan -6 -3 -3 -1 -1 -1 -0 -0 -1 -1 nan nan nan nan nan nan nan nan nan nan nan nan nan nan nan nan nan nan nan nan nan nan nan nan nan
-5 -5 -3 -3 -3 -5 -2 -3 -7 -7 nan nan nan nan nan nan nan nan -5 nan nan -4 -3 -7 -7 -8 nan nan nan nan -8 -9 -10 -10 -13 nan -9 -9 -4 -4 -4 -3 -5 -5 -5 -5 -4 -3 -3 -4 -4 nan nan nan nan -1 -1 -1 -3 nan nan nan nan nan nan nan nan nan nan nan nan nan nan nan nan nan nan nan nan nan nan nan nan nan nan nan
-6 -5 -6 nan nan nan -5 -5 nan nan nan nan nan nan nan nan nan nan nan -4 -4 -4 -5 -7 -7 -8 -5 -5 -7 -7 -6 -6 -8 -8 -9 nan nan nan -10 -5 -5 -3 -2 -3 -3 -3 -3 -2 -2 -2 -2 nan nan nan -2 -1 -1 -1 nan nan nan nan nan nan nan nan nan nan nan nan nan nan nan nan nan nan nan nan nan nan nan nan nan nan nan nan
-3 -4 nan nan nan nan nan nan nan nan nan nan nan nan nan nan nan nan nan -4 -4 -4 -3 -8 -8 -6 -5 -6 -5 -5 -4 -4 -5 -5 nan nan nan nan nan -6 -6 -3 -1 -1 -1 -0 -2 -4 -4 -2 -1 nan -1 -1 -1 nan nan nan nan nan nan nan nan nan nan nan nan nan nan nan nan nan nan nan nan nan nan nan nan nan nan nan nan nan nan nan
nan nan nan nan nan nan nan nan nan nan nan nan nan nan nan -3 -0 -0 -3 -7 -7 -7 -8 -6 -6 -3 -5 -6 -3 -3 -1 -2 -5 -5 nan nan nan nan -4 nan nan -4 -4 -2 -2 -1 -2 -4 -4 -3 -3 -3 nan nan nan nan nan nan nan nan nan nan nan nan nan nan nan nan nan nan nan nan nan nan nan nan nan nan nan nan nan nan nan nan nan nan
nan nan nan nan nan nan nan nan nan nan nan nan nan nan nan nan nan nan nan -9 -9 -8 -8 -5 -5 -3 -3 -5 -4 -4 -2 -4 nan nan nan nan nan nan nan -4 -4 nan nan nan nan nan nan nan nan -3 -0 -0 -0 -0 nan nan nan nan nan nan nan nan nan nan nan nan nan nan nan nan nan nan nan nan nan nan nan nan nan nan nan nan nan nan nan nan
-3 nan nan nan nan nan nan nan nan nan nan nan nan nan nan nan nan nan -7 -9 -9 -8 -8 -4 -4 -4 -4 -5 -3 -3 -1 -4 nan nan nan nan nan nan nan nan nan nan nan nan nan -1 nan nan nan nan -0 -0 -0 -0 nan nan nan nan nan nan nan nan nan nan nan nan nan nan nan nan nan nan nan nan nan nan nan nan nan nan nan nan nan nan nan nan
Wind_Speed
11 11 12 15 16 16 15 17 18 17 15 14 13 13 13 14 14 15 17 18 18 17 17 17 18 19 21 24 27 29 30 31 32 32 33 33 33 33 34 34 35 35 35 35 35 35 35 35 34 34 34 33 33 32 32 32 32 32 32 31 30 29 28 27 27 26 26 27 27 27 27 27 27 27 27 26 26 26 26 25 25 24 24 24 25 25
11 12 12 15 17 17 14 16 17 17 16 15 15 14 15 15 15 14 14 16 17 17 16 16 17 19 21 22 25 28 30 31 32 33 33 33 33 33 33 34 34 35 35 35 35 35 34 34 34 34 33 33 33 32 32 32 32 31 31 31 30 29 28 27 26 26 26 26 27 27 27 27 27 27 27 26 26 26 26 26 25 25 25 25 25 25
12 12 11 13 15 15 14 15 15 15 16 16 16 16 18 18 16 14 12 13 14 15 15 16 16 18 19 20 23 27 29 31 32 32 33 33 33 33 33 34 34 34 34 35 34 34 34 34 33 33 33 32 32 32 31 31 31 31 30 30 29 28 27 27 26 26 26 26 26 26 27 27 27 26 26 26 26 26 26 26 26 26 26 26 26 26
11 11 11 11 12 14 14 14 14 14 14 15 16 18 19 17 15 13 12 13 13 14 15 16 17 17 16 17 20 24 28 30 31 32 33 33 32 32 33 33 33 34 34 34 34 33 33 33 32 32 32 31 31 31 30 30 30 29 29 29 29 28 27 27 26 26 26 26 26 26 26 26 26 26 26 26 26 26 27 27 27 27 27 26 26 26
11 11 11 10 11 12 13 13 13 13 13 14 15 16 16 14 13 12 12 13 13 14 14 15 16 16 15 15 18 22 27 30 32 32 32 32 32 32 32 32 33 33 33 33 33 33 32 32 31 31 31 30 30 30 30 29 29 28 28 28 28 28 27 26 26 25 25 25 25 25 25 25 25 26 26 26 26 27 27 27 28 27 27 26 26 25
11 11 11 10 10 10 11 11 12 12 13 12 13 13 13 12 12 11 11 12 12 13 13 13 14 15 16 16 19 23 27 29 31 31 31 31 31 31 31 31 32 33 33 33 33 32 32 32 31 31 30 30 30 30 29 29 29 28 28 28 28 27 27 26 25 25 25 25 25 25 25 25 25 26 26 27 27 27 27 28 28 28 27 26 25 24
11 11 11 10 10 10 10 11 11 12 12 11 11 11 11 11 11 11 12 12 12 12 13 13 14 15 16 17 19 22 23 25 26 28 29 29 29 29 29 30 31 32 33 33 33 32 32 32 32 31 31 31 31 30 30 30 29 29 29 28 27 27 26 26 25 25 24 24 24 24 25 25 26 26 27 27 27 27 28 28 28 28 27 25 24 24
12 11 11 11 11 11 10 10 11 11 12 11 11 11 10 10 10 11 12 13 12 12 12 13 13 13 14 15 16 17 17 18 19 20 22 23 24 25 27 29 30 32 32 32 32 32 32 32 32 31 31 31 31 31 31 31 30 30 29 28 28 27 26 25 25 24 24 23 24 24 24 25 25 25 26 26 26 27 27 28 28 27 26 25 23 23
13 13 12 12 12 12 11 10 10 11 11 11 11 10 11 11 10 10 11 12 12 12 12 12 13 13 12 13 13 14 14 15 15 15 17 17 18 20 23 26 28 30 31 31 31 31 31 30 30 30 29 29 29 29 29 30 30 30 29 29 28 27 26 25 24 24 23 23 23 23 23 24 24 24 24 23 23 24 24 25 25 25 24 23 22 21
13 13 13 12 12 11 11 10 10 10 11 10 9 9 9 11 11 11 11 11 11 11 11 12 12 12 11 11 11 12 14 15 17 19 20 20 21 23 24 24 25 26 29 29 29 29 29 28 28 27 27 26 26 26 26 26 27 28 28 29 28 27 25 24 24 23 23 23 23 23 23 23 23 23 23 21 21 21 21 21 22 22 21 21 20 20
12 12 12 12 11 10 10 10 10 10 10 9 9 8 9 10 10 11 13 13 13 12 12 11 11 10 10 10 10 11 12 13 15 17 19 21 24 25 25 25 25 25 27 27 27 26 26 26 26 25 25 25 24 24 24 24 24 26 27 28 27 26 25 25 24 24 24 24 24 24 24 24 24 24 24 22 21 20 19 20 20 20 20 20 20 20
11 10 10 9 9 8 8 8 8 7 7 8 8 9 9 9 9 10 12 13 14 13 12 10 9 9 10 10 11 11 12 12 12 12 13 15 17 18 18 18 18 19 20 21 21 22 23 24 24 23 23 23 23 23 23 23 24 25 26 26 26 25 25 25 25 25 25 25 25 24 24 25 25 25 25 24 22 21 20 20 20 21 21 21 21 21
10 8 7 7 7 7 6 6 6 5 6 7 9 10 10 9 9 10 10 12 12 11 10 10 10 10 11 11 11 11 12 12 12 11 11 11 11 11 10 9 9 10 12 12 12 14 18 20 21 22 23 23 23 24 24 24 24 25 25 25 25 25 24 24 24 24 25 25 25 25 24 25 25 25 25 24 23 22 21 21 21 22 22 22 22 22
10 8 7 7 8 7 7 8 8 8 9 9 10 10 10 10 10 10 11 11 11 10 11 12 12 12 11 11 12 12 12 11 11 11 10 10 10 9 8 8 9 10 10 9 10 11 15 16 16 17 20 21 22 23 23 23 24 25 25 25 25 25 24 24 24 24 24 24 24 24 24 24 24 25 25 24 23 22 21 21 21 22 22 22 22 22
10 9 9 9 9 9 9 10 10 11 11 10 10 10 11 11 10 10 10 11 11 11 11 12 13 13 11 10 10 11 11 10 10 10 11 10 9 9 8 9 10 10 10 10 10 12 14 13 12 12 15 18 20 21 22 23 24 25 25 25 25 25 24 24 23 23 23 23 23 24 24 24 24 24 24 23 22 22 21 21 21 22 22 22 22 22
8 8 10 10 11 11 10 10 11 11 11 11 10 10 11 11 10 10 10 11 11 11 11 12 12 12 10 9 9 10 10 10 10 10 11 10 8 8 9 10 10 11 10 11 11 11 11 10 10 11 13 17 21 24 26 26 26 26 25 25 25 24 24 23 23 23 23 23 24 24 24 24 23 23 22 22 22 21 21 21 21 22 22 23 23 22
8 9 10 11 12 12 11 11 11 11 11 10 10 10 10 10 10 9 10 10 10 10 10 10 11 10 9 8 8 8 9 9 9 9 10 10 10 9 9 10 11 11 11 11 10 9 9 9 10 11 12 17 21 25 26 26 25 25 24 24 24 24 24 23 23 23 23 23 24 24 24 24 23 22 22 22 22 22 22 22 22 22 23 23 23 23
10 11 12 12 12 12 11 11 11 10 10 10 10 10 9 9 9 9 9 9 9 9 10 9 9 9 9 8 7 7 8 8 8 9 10 11 10 9 9 10 11 12 11 10 9 9 8 9 10 11 13 19 23 25 26 26 25 24 23 23 24 25 25 25 25 24 24 23 23 23 23 23 23 23 22 22 22 22 22 22 23 23 23 24 24 24
12 12 12 12 12 11 11 11 11 11 11 10 9 9 9 9 9 9 9 9 10 10 11 10 10 10 10 10 9 9 9 8 9 11 11 12 12 11 10 11 11 12 10 9 8 8 8 9 11 15 18 22 24 25 25 25 24 24 23 24 25 26 27 27 27 27 26 25 23 23 22 23 23 23 23 22 22 23 23 23 23 24 24 24 24 24
13 13 12 12 12 12 12 12 11 11 10 9 9 9 9 9 9 9 10 10 10 11 11 11 12 12 11 11 11 11 10 10 11 11 12 13 12 11 11 11 10 10 8 8 8 7 8 9 11 14 17 20 22 23 23 24 24 24 25 26 26 27 28 28 29 28 27 26 24 22 21 22 22 23 23 23 23 23 24 24 24 24 25 25 25 25
14 14 12 12 12 12 11 11 11 11 11 11 11 10 10 10 10 11 11 11 12 12 11 11 12 11 11 11 12 12 12 12 12 12 11 11 11 9 8 7 8 8 8 8 8 8 9 10 10 11 13 17 20 22 23 24 25 25 26 27 27 28 28 28 28 28 27 26 24 22 22 22 22 23 23 23 24 24 24 24 25 25 25 25 25 25
14 14 14 14 14 13 12 12 11 11 11 11 11 10 10 11 12 13 13 13 13 13 12 12 12 12 12 13 13 13 12 11 12 11 10 11 11 8 5 5 6 7 8 8 9 9 10 10 10 11 14 18 21 23 24 25 25 26 27 28 28 29 29 28 28 27 26 25 23 23 22 22 22 22 23 23 23 24 24 25 25 26 26 26 26 26
14 13 14 14 13 13 12 11 10 10 10 11 11 11 10 11 12 13 13 12 12 12 12 13 13 13 13 13 13 12 11 11 11 10 9 11 10 7 4 4 6 8 9 9 9 10 10 9 9 10 13 18 21 23 24 25 26 27 28 29 29 29 29 29 28 27 25 24 23 22 21 21 21 22 22 23 23 24 24 25 25 26 26 27 27 27
13 14 14 12 11 10 10 9 9 10 11 12 12 12 12 12 13 13 12 12 12 12 12 13 13 13 13 12 11 10 9 9 8 7 7 8 7 6 5 5 7 9 10 9 9 9 9 9 8 9 10 16 20 22 24 26 27 28 29 30 30 29 29 29 27 25 24 23 22 21 21 21 22 22 23 24 24 25 25 25 26 26 27 27 27 28
13 13 12 12 12 13 14 14 14 15 15 14 13 13 13 14 14 13 12 12 11 11 11 13 13 12 11 10 9 8 8 8 6 5 5 5 7 7 7 6 7 9 10 9 8 7 8 8 8 8 9 13 17 21 23 26 27 28 29 28 28 27 26 25 24 23 22 21 21 21 22 22 23 24 25 25 25 26 26 26 26 27 27 27 28 28
20 20 19 20 21 23 24 25 25 25 24 20 16 13 13 13 12 12 11 11 11 11 12 12 12 11 9 8 8 7 6 6 5 4 5 6 7 8 8 7 7 8 9 8 7 7 8 9 9 9 9 11 14 18 22 24 26 27 26 25 24 23 23 23 22 22 22 22 22 23 24 24 25 26 27 27 27 27 27 27 27 27 28 28 27 27
29 30 31 29 27 27 27 27 28 29 29 26 23 19 15 12 11 11 12 11 11 11 11 12 12 11 10 9 8 7 5 4 3 4 5 7 8 9 8 6 6 7 9 7 7 7 9 10 10 10 9 9 11 14 19 21 23 23 23 23 23 23 23 24 24 24 23 23 24 25 26 27 28 28 29 29 29 29 29 28 28 28 28 26 24 23
28 28 26 25 24 25 26 26 27 27 27 27 27 25 20 13 11 11 12 11 11 11 11 12 12 11 10 9 9 7 5 4 5 5 6 7 7 8 7 6 6 6 7 7 7 8 10 10 9 9 9 9 9 10 14 17 18 19 20 22 23 24 25 25 25 25 25 25 26 27 28 29 30 30 31 31 31 30 30 29 29 28 26 22 17 14
22 23 22 22 23 23 24 24 24 24 25 25 26 24 18 13 11 11 11 11 11 11 12 12 11 11 11 10 9 8 7 6 6 7 6 7 7 7 7 6 5 5 6 7 7 7 7 7 7 7 7 8 8 8 9 12 13 15 16 20 22 24 25 25 25 25 25 26 27 28 29 30 31 32 33 33 33 32 31 30 29 25 20 16 14 12
16 17 18 19 19 19 19 18 18 19 21 23 24 22 17 12 10 10 11 10 10 11 11 11 11 11 11 11 10 9 7 6 6 6 6 7 7 7 7 7 6 5 5 6 7 7 6 5 5 6 6 8 7 7 7 8 9 10 11 14 17 19 22 23 24 25 25 26 27 29 30 31 33 34 35 35 34 32 30 30 27 21 14 12 11 11
14 14 14 14 14 14 14 13 14 15 17 19 19 17 14 11 10 9 9 9 10 10 11 11 12 11 11 10 9 8 6 5 6 7 7 7 7 7 7 7 6 5 4 5 6 7 8 6 5 5 6 7 7 7 8 8 8 7 7 9 11 14 18 20 21 22 23 25 26 28 30 31 33 34 32 31 29 28 27 28 24 19 11 10 10 10
13 12 11 12 12 11 11 11 11 11 12 13 13 12 12 11 10 9 8 8 9 9 10 11 12 11 11 10 9 8 6 6 8 9 8 7 7 7 6 6 6 5 4 5 6 7 8 7 5 5 6 7 7 8 8 8 7 6 7 8 9 11 15 17 17 18 19 21 24 26 28 30 30 29 24 19 17 18 21 23 21 17 11 10 10 10
12 11 11 11 11 11 10 10 10 10 10 10 10 10 10 10 10 10 8 8 8 9 10 11 11 11 11 11 11 9 8 8 10 11 11 8 7 6 5 5 6 6 6 6 6 7 7 7 7 6 6 6 7 7 8 7 6 6 6 8 9 10 12 12 12 13 14 17 19 21 23 25 24 21 15 8 4 6 11 15 17 16 13 10 9 9
12 12 11 11 11 11 10 10 10 10 10 10 10 10 9 9 9 9 9 8 8 9 9 10 11 11 11 11 11 10 10 10 11 13 12 9 7 6 6 6 7 7 7 7 6 7 7 7 7 7 6 6 6 6 6 6 6 6 5 7 7 8 9 9 9 10 12 13 13 14 16 16 17 15 11 9 7 5 2 4 8 11 10 9 8 8
12 12 12 11 11 11 11 11 11 11 10 10 10 10 9 9 9 9 9 9 9 9 9 10 10 11 11 11 11 11 11 11 12 13 13 10 8 7 7 7 7 8 8 7 7 6 6 8 8 8 7 7 6 6 5 5 5 5 5 6 7 7 7 7 8 9 11 11 11 10 10 10 10 10 9 10 12 13 12 8 5 3 3 4 4 5
11 11 11 11 11 11 11 11 11 11 10 10 9 9 9 9 9 9 9 10 10 11 11 11 11 11 11 12 12 13 13 12 13 14 13 10 8 7 7 7 8 8 8 8 8 7 7 8 8 9 9 8 7 6 5 5 5 5 5 6 7 7 7 7 8 8 9 9 9 9 8 8 8 8 7 11 14 16 16 15 14 12 9 8 6 4
11 11 11 11 10 11 11 11 10 10 10 10 10 10 10 10 10 10 10 10 10 11 12 12 12 12 13 13 13 13 14 13 13 13 12 10 9 9 9 9 9 9 9 9 8 8 7 8 8 8 8 7 7 6 6 6 6 6 6 6 6 7 7 7 7 7 8 8 8 8 8 8 7 7 7 11 13 14 15 16 16 15 15 14 13 11
11 11 11 10 10 10 10 10 10 10 10 10 10 10 11 11 11 12 11 11 12 12 12 11 11 13 16 17 17 17 16 16 15 14 12 11 10 10 9 10 9 9 9 8 8 8 7 7 7 7 7 7 7 8 8 8 8 8 8 7 7 7 7 6 6 6 7 8 8 8 8 7 7 6 7 8 9 10 10 11 12 13 13 13 14 15
11 11 11 11 11 10 10 10 10 10 10 10 11 11 11 12 12 12 12 12 12 12 12 12 11 12 15 17 18 18 17 16 14 13 12 11 9 9 9 9 9 9 9 8 7 7 6 6 6 7 7 7 8 8 8 7 8 8 9 9 8 7 6 5 5 6 7 7 7 8 7 7 6 6 6 7 8 8 8 8 9 10 9 8 9 12
11 11 11 11 11 11 10 11 11 11 11 11 12 12 12 11 11 11 11 11 11 12 13 13 12 12 13 13 14 14 14 12 11 11 10 9 8 8 9 9 9 8 7 6 5 5 6 6 7 8 8 7 7 7 7 7 8 8 9 8 7 6 5 4 4 5 6 6 6 7 6 6 5 5 7 8 8 8 8 7 7 8 8 7 6 6
12 11 11 11 11 11 11 11 11 11 11 11 11 11 10 10 10 10 10 10 11 11 11 12 12 11 11 10 10 11 11 11 11 11 9 9 9 9 8 8 7 6 5 6 6 6 7 7 8 8 8 8 8 8 8 8 9 10 11 9 8 7 6 5 5 5 5 5 6 6 6 6 5 6 7 8 8 8 7 7 7 7 8 7 6 5
12 12 11 11 10 10 11 11 12 12 12 11 11 10 10 10 10 10 10 10 10 10 10 10 10 10 9 9 9 9 10 10 10 10 10 10 9 8 7 6 5 5 5 6 7 7 7 7 7 7 7 7 7 7 7 8 9 9 9 9 9 8 7 5 4 4 5 5 5 6 6 5 5 6 7 7 7 7 8 8 9 9 8 7 6 6
11 11 11 11 11 11 12 12 12 11 10 10 10 10 10 10 10 10 11 11 11 11 11 10 9 9 9 9 9 9 9 8 9 9 9 8 7 6 5 5 5 5 5 5 6 6 7 7 7 6 6 6 7 7 8 8 8 8 8 9 8 6 4 3 4 5 5 5 5 5 5 4 4 5 6 7 7 7 7 9 10 11 10 7 7 6
11 11 11 11 10 10 11 10 10 10 10 10 10 10 10 10 11 11 11 11 11 11 11 9 9 8 9 9 10 9 8 8 8 8 7 6 5 4 4 5 5 5 5 5 5 5 6 6 6 6 6 6 6 7 8 8 8 8 8 7 5 4 3 3 4 5 5 4 4 4 5 4 4 4 6 7 7 7 7 8 8 8 9 8 7 7
10 10 11 10 10 10 10 10 10 10 10 10 10 10 10 11 11 11 10 11 11 11 10 9 8 8 8 9 9 9 8 7 6 5 4 4 4 4 4 5 5 5 5 5 5 4 5 5 5 5 5 5 6 7 8 8 8 8 7 4 3 2 2 2 3 4 4 4 4 4 5 4 4 4 7 7 7 7 7 8 8 8 8 8 8 8
10 10 11 10 10 11 11 11 11 11 10 10 11 11 11 11 10 10 11 11 11 10 9 8 8 8 8 9 8 8 7 6 5 4 3 2 2 3 4 5 5 5 5 5 5 4 4 4 5 5 5 5 6 7 7 7 7 5 3 2 2 2 2 2 3 4 4 3 3 4 5 4 4 5 7 7 7 7 7 7 8 8 8 7 8 8
11 11 11 11 11 11 11 11 11 11 11 11 11 11 11 10 10 10 10 10 10 9 9 8 8 8 9 9 8 8 7 7 6 5 4 4 4 4 4 5 5 6 6 5 5 5 4 4 4 4 5 5 5 5 5 5 4 4 3 2 2 2 2 2 3 3 4 3 3 3 4 4 4 6 7 7 7 7 7 7 8 8 7 7 7 7
11 11 11 11 11 11 11 11 11 11 11 11 11 11 11 11 11 11 10 10 9 8 9 8 8 9 9 9 8 8 7 7 6 6 5 5 5 5 5 5 5 6 6 6 6 5 4 3 3 4 5 5 4 4 4 4 4 3 3 2 2 2 2 2 3 3 3 3 3 4 3 3 4 5 6 6 6 6 7 8 8 8 8 7 7 7
11 11 11 11 11 11 11 11 11 11 11 12 11 11 11 12 13 13 10 9 8 8 8 8 9 9 9 8 7 7 7 7 6 6 6 6 6 6 6 6 6 5 5 5 5 4 4 3 2 3 4 4 4 4 4 4 3 3 3 2 2 2 2 2 3 3 3 3 4 4 4 4 4 5 6 7 7 7 7 8 8 8 8 7 7 7
11 11 11 11 11 11 11 11 11 11 12 12 12 12 11 11 11 10 9 8 7 7 7 8 9 9 9 8 7 7 7 6 6 5 5 5 5 6 6 6 6 6 5 4 3 3 3 2 2 1 4 6 6 6 4 4 4 3 2 2 2 2 2 2 2 2 3 3 4 4 5 4 4 4 5 7 8 8 8 7 7 7 7 7 7 8
11 11 11 11 11 11 11 11 11 11 12 12 12 12 11 11 10 9 8 7 7 7 7 8 8 8 8 8 8 7 7 6 6 6 5 5 5 6 6 6 6 6 6 5 3 2 2 2 1 0 3 8 10 9 5 5 4 3 2 3 2 2 2 2 2 2 3 3 4 4 5 5 5 5 5 6 7 7 7 7 7 7 6 6 7 8
Wind_Direction
297 300 301 301 300 297 294 294 294 295 295 296 297 298 298 297 296 295 296 297 296 296 296 295 294 294 293 293 293 293 293 293 293 293 293 293 293 293 293 293 292 292 291 291 290 290 289 289 288 288 287 287 286 286 285 284 284 283 283 283 282 282 282 282 282 283 283 283 282 281 281 280 279 279 278 277 275 274 273 273 272 271 269 267 264 260
295 296 297 297 296 293 291 292 293 294 296 298 299 299 299 297 295 294 293 293 294 295 295 295 295 294 294 293 293 294 294 294 294 294 293 293 292 292 291 291 290 290 289 289 288 287 287 286 286 285 285 284 283 283 282 282 282 281 281 281 281 281 281 282 282 283 282 282 281 280 279 279 279 278 278 277 277 276 276 275 274 272 270 268 265 262
296 295 294 294 293 292 292 294 295 296 298 299 300 299 298 296 294 292 292 293 294 295 295 296 295 294 294 294 293 293 293 293 293 292 292 291 290 290 289 289 288 288 288 287 287 286 286 285 284 284 283 282 282 281 281 281 280 280 281 281 281 281 281 281 282 282 281 280 279 278 277 277 277 277 277 277 277 277 277 276 274 272 270 267 265 262
294 293 294 294 293 293 294 297 298 298 297 297 297 296 295 293 292 291 292 294 296 296 296 295 295 294 293 293 292 291 291 291 290 289 288 288 288 288 288 288 289 289 289 289 288 287 286 285 285 284 283 283 282 281 281 281 280 280 280 280 281 281 281 281 281 281 280 279 278 277 276 276 276 276 276 276 276 276 276 275 273 271 268 266 264 262
292 293 296 297 297 296 296 296 295 294 293 292 292 293 292 290 291 292 294 296 296 296 296 295 294 293 292 291 289 288 287 287 286 286 286 286 286 287 288 290 291 292 292 291 290 289 289 288 287 286 285 284 284 283 283 282 281 281 281 280 281 281 281 281 281 281 280 279 278 277 276 276 275 275 275 275 275 275 275 274 272 270 267 265 263 262
293 294 297 298 297 295 294 290 288 288 289 289 289 289 289 290 291 293 295 297 297 296 296 294 292 290 288 286 285 285 285 285 285 285 285 286 287 288 290 292 293 294 293 292 292 291 290 290 289 288 288 287 286 286 285 284 283 282 281 281 281 281 281 281 281 281 281 280 280 279 278 277 276 275 275 275 274 274 274 273 271 269 266 264 262 261
293 294 295 292 289 286 284 282 284 286 288 289 290 289 289 290 291 293 294 296 296 296 294 291 288 286 284 283 284 285 285 286 287 287 287 287 289 291 293 293 293 293 292 291 291 291 291 291 291 291 291 290 290 289 288 287 286 284 282 282 281 281 281 281 281 281 282 282 282 281 280 278 276 275 274 273 273 273 273 272 270 267 264 262 261 261
293 292 289 286 284 282 279 280 283 287 289 290 291 292 292 292 292 292 293 293 293 293 292 290 287 284 283 285 288 290 292 291 291 290 288 288 290 292 293 293 292 291 290 289 289 289 290 290 291 292 293 293 293 293 292 291 289 287 286 284 283 281 280 280 280 281 282 282 282 282 281 279 277 274 273 272 271 271 271 270 268 265 262 261 260 260
289 289 286 284 284 284 284 283 285 287 289 290 292 294 296 296 294 293 291 291 291 292 293 292 289 287 287 292 295 296 295 291 288 286 285 288 291 293 293 291 290 289 288 288 288 289 289 290 291 291 292 292 292 292 293 292 292 290 288 287 284 282 280 280 280 280 280 280 281 281 281 280 278 276 273 273 272 272 271 269 266 263 260 259 259 260
283 284 284 282 281 282 284 286 288 290 292 292 293 294 294 294 294 294 294 293 295 296 296 295 294 293 294 295 294 292 289 285 283 284 287 290 292 292 291 290 289 288 288 288 289 290 290 289 287 286 286 286 286 286 287 287 287 287 286 284 283 281 280 280 279 278 278 278 278 278 279 279 278 277 276 276 276 275 275 272 269 266 262 261 261 262
281 280 279 279 279 280 282 288 293 298 300 298 293 288 285 288 292 296 298 299 300 301 300 298 296 295 294 291 289 287 286 286 287 288 290 291 292 291 290 290 290 290 290 290 289 289 288 286 285 283 283 282 281 280 280 278 278 278 278 277 278 279 279 279 278 277 277 276 276 277 277 278 278 277 277 276 276 276 277 276 274 272 268 266 265 265
282 280 278 280 282 285 287 292 297 301 303 298 293 289 286 290 295 299 300 301 302 303 301 298 293 289 289 291 293 293 293 292 292 292 292 291 290 290 289 291 293 294 293 289 286 285 286 288 288 288 288 287 285 283 281 278 276 275 273 274 276 277 278 278 278 277 277 276 276 276 276 276 276 276 275 274 273 273 273 274 274 274 272 271 269 268
281 280 279 282 286 291 296 299 299 297 294 292 292 293 295 298 300 300 298 297 297 296 295 292 290 289 291 295 298 298 296 293 291 290 289 288 287 287 286 290 291 290 284 281 282 286 290 293 294 295 295 295 293 290 288 284 281 279 278 278 278 279 279 278 278 277 277 277 276 276 275 274 274 273 273 272 271 270 269 270 271 272 272 272 271 270
282 281 283 288 293 298 301 301 299 296 293 293 293 294 296 299 300 298 293 290 289 290 290 292 293 294 296 296 296 294 292 290 289 287 286 285 284 283 283 283 281 278 277 285 291 294 294 294 295 295 297 296 294 292 290 288 286 285 284 284 283 283 282 281 280 279 278 277 276 275 274 273 272 271 271 271 270 269 268 268 268 270 270 271 270 270
286 290 295 299 301 303 303 302 300 298 296 296 295 295 296 296 295 292 289 289 291 293 295 295 295 294 292 292 292 291 288 288 287 287 286 284 283 282 282 281 281 282 288 293 293 291 290 289 290 291 292 291 290 289 288 288 288 288 288 288 287 287 286 285 284 283 282 280 278 276 273 272 271 270 270 270 270 270 269 269 269 269 270 270 270 269
296 302 304 305 304 303 302 301 300 299 298 297 295 294 293 291 290 288 287 291 294 297 297 297 295 293 289 288 288 288 288 289 289 289 289 287 285 284 285 284 285 287 290 290 288 287 287 286 286 287 288 288 288 288 288 288 289 291 292 294 294 293 293 293 292 290 290 287 284 280 276 273 271 269 269 270 270 270 270 270 269 269 269 269 269 268
306 307 305 304 302 301 301 300 299 297 296 293 290 287 284 285 286 287 288 291 294 295 295 296 296 296 295 293 290 289 292 294 294 293 292 289 287 285 281 282 285 287 288 285 283 283 284 284 284 284 284 285 286 287 288 289 291 293 295 296 295 295 294 293 292 290 289 288 286 284 280 276 273 270 269 270 270 271 271 270 269 269 269 269 268 268
305 304 303 301 300 300 300 299 296 293 289 286 283 282 280 282 285 288 290 292 294 295 295 294 294 295 296 297 297 300 305 303 300 296 291 286 283 280 278 281 283 283 282 281 281 282 281 281 282 283 284 284 285 286 288 289 290 292 293 294 294 294 294 293 290 288 286 285 284 282 281 278 276 273 271 271 271 271 271 270 270 269 269 268 268 268
302 302 302 300 299 297 296 294 291 288 285 284 285 286 287 289 292 294 295 295 296 296 297 296 294 292 292 292 296 303 309 304 296 290 284 282 281 282 283 282 280 278 278 279 280 280 281 283 284 285 285 286 286 287 288 289 291 293 294 295 296 296 295 294 292 289 286 282 280 278 278 278 277 276 275 274 273 273 272 271 271 270 269 268 268 267
301 300 299 298 297 294 291 287 286 285 287 290 293 296 297 301 302 301 299 298 296 296 295 293 292 290 290 291 294 297 299 292 286 281 279 280 282 284 285 282 280 279 279 280 282 286 289 290 289 288 287 288 289 290 291 292 294 296 298 298 298 298 297 296 294 291 287 282 278 275 273 275 276 277 277 276 275 275 274 273 272 270 269 268 267 267
298 296 294 293 292 290 287 286 288 291 295 299 302 303 305 306 304 301 298 297 295 293 291 289 287 288 289 289 289 289 289 286 283 282 282 282 282 281 281 279 278 279 282 284 289 294 295 292 291 290 290 292 293 294 296 296 297 298 298 298 298 298 298 297 296 294 290 285 280 276 272 273 274 275 276 276 276 275 275 274 272 271 270 269 267 266
292 291 290 288 286 284 284 288 292 297 301 304 305 305 305 304 301 298 296 294 292 290 288 286 285 285 285 283 282 281 281 279 279 281 283 281 279 278 276 276 279 283 287 291 295 295 293 291 291 291 293 294 295 296 297 297 297 297 297 297 297 297 298 299 298 297 296 292 287 281 277 277 276 276 277 278 277 277 276 275 273 272 270 269 267 266
287 287 288 286 284 283 285 290 295 298 301 301 301 300 301 300 297 295 294 293 291 289 287 285 283 281 277 274 274 273 273 272 273 275 278 278 280 282 287 290 292 292 291 294 296 295 292 289 288 289 292 294 295 296 297 297 297 296 296 296 296 296 295 295 295 294 294 292 290 289 286 285 283 282 281 280 279 278 277 275 274 272 270 268 266 265
286 286 286 284 283 284 288 293 297 299 301 302 301 300 298 295 293 291 291 290 289 287 284 282 280 277 273 271 271 273 274 274 273 274 276 279 284 291 301 301 297 293 291 292 293 292 290 288 288 289 292 294 296 296 296 296 296 295 294 294 294 294 293 292 293 293 293 294 294 295 294 292 289 286 284 281 279 278 276 274 272 271 269 267 265 263
289 287 285 285 286 290 296 299 302 303 305 304 303 300 298 295 293 291 289 288 286 283 280 279 278 278 279 280 281 283 283 279 278 279 281 286 291 295 299 301 297 293 291 293 293 292 290 289 290 291 292 293 294 294 294 293 293 293 294 295 296 296 296 297 298 299 299 299 299 298 296 293 290 287 283 281 278 276 274 272 270 268 266 264 262 260
292 291 290 292 295 298 301 303 304 304 305 303 301 300 298 297 295 293 289 287 285 284 283 282 282 284 288 290 290 289 288 285 286 287 289 292 294 295 298 300 296 293 292 294 294 293 292 292 292 292 291 290 290 291 290 291 292 294 296 299 302 304 307 307 307 307 304 302 300 298 296 293 290 287 283 280 277 274 271 269 267 265 263 261 260 258
293 293 294 296 299 302 303 304 304 304 304 303 302 301 300 299 296 293 289 289 289 289 288 287 288 289 291 291 289 288 290 293 294 292 291 292 292 293 297 299 297 294 293 293 293 294 294 294 293 292 290 288 287 287 287 290 293 297 301 305 309 311 312 310 308 306 304 302 300 299 297 294 291 287 284 280 276 272 269 266 264 261 260 258 257 255
294 295 298 301 302 304 305 305 305 305 304 303 302 301 300 298 293 290 289 291 291 290 286 286 288 291 293 292 290 290 292 294 294 295 295 292 290 291 297 300 298 294 294 293 293 293 293 292 292 291 288 287 285 286 287 292 296 301 305 309 311 312 311 309 307 305 304 303 302 301 299 296 292 288 284 279 275 270 266 262 260 257 255 252 249 246
296 298 300 302 304 306 307 306 306 304 303 302 301 300 298 294 288 286 287 289 288 286 284 286 289 292 294 293 292 291 290 292 297 301 303 296 290 290 297 298 296 296 299 298 296 293 289 289 289 289 288 288 289 290 292 297 300 303 306 309 310 310 308 307 306 305 305 304 303 301 299 295 292 288 283 278 273 267 261 257 254 252 248 243 239 237
301 302 303 305 306 307 307 305 304 302 300 299 298 297 294 290 284 282 284 285 285 285 286 290 293 294 295 295 293 292 291 296 304 310 309 299 293 292 297 296 296 301 309 308 304 299 293 290 289 290 291 294 295 297 297 298 299 301 304 307 307 306 305 304 304 304 304 303 302 299 297 294 291 288 283 277 270 262 255 250 247 242 235 231 229 229
305 306 305 306 306 306 304 302 300 298 297 296 295 294 291 287 283 281 282 283 285 288 292 294 295 295 296 296 297 297 297 304 312 313 309 297 292 291 296 295 297 302 312 312 309 305 302 298 295 293 295 296 297 296 295 295 296 300 304 305 303 301 301 302 302 303 303 302 300 298 296 294 292 288 283 274 265 255 247 242 237 231 223 221 221 222
306 306 305 305 305 304 302 300 298 296 295 294 293 291 289 287 285 283 283 285 287 290 292 293 293 294 295 296 296 297 300 305 308 307 302 294 288 288 291 292 295 300 306 304 300 297 299 300 300 299 296 295 294 294 292 294 296 301 305 302 299 297 299 300 301 301 301 300 299 297 296 294 294 293 290 277 259 245 237 233 227 221 213 214 216 219
305 305 304 304 303 301 299 298 296 295 294 293 292 291 290 289 289 288 288 287 288 289 290 292 293 295 296 295 293 292 293 297 300 300 298 292 288 286 288 291 296 300 304 298 289 284 284 290 296 299 296 293 292 292 293 295 299 301 302 298 295 294 296 297 298 299 299 299 298 297 295 296 298 301 310 311 287 240 229 225 221 216 211 211 213 215
305 305 303 302 301 300 299 297 296 295 295 294 294 293 293 292 292 292 292 290 289 288 289 291 293 295 296 294 292 290 290 292 294 296 296 292 288 287 291 295 300 303 304 297 289 282 278 283 289 295 296 294 292 291 292 296 298 298 295 292 290 291 293 296 298 299 299 299 297 295 295 297 300 308 331 3 27 43 65 207 210 209 204 205 207 209
305 304 303 303 302 301 300 299 298 297 296 296 295 295 295 295 294 294 293 291 290 288 287 288 288 290 291 291 290 290 290 290 292 293 293 289 287 288 293 297 303 305 301 293 289 285 284 285 289 292 296 296 294 291 292 295 297 297 293 289 288 289 291 296 299 301 301 298 295 295 298 302 304 311 340 19 37 46 51 57 72 111 142 169 181 190
305 304 304 304 303 303 302 301 300 300 299 298 297 296 296 295 294 293 291 289 288 286 284 282 281 281 281 282 284 285 286 287 288 289 288 286 287 291 295 299 302 301 295 290 288 287 288 289 290 292 293 294 295 296 297 299 301 301 298 295 293 291 291 294 297 299 299 297 297 300 307 311 312 319 344 23 36 42 47 49 52 56 62 67 72 80
305 305 305 305 304 304 303 303 302 301 300 300 299 298 297 295 293 291 289 286 283 281 280 279 277 275 273 274 275 277 279 282 283 284 283 284 288 292 294 296 296 294 289 287 288 288 288 288 290 291 291 292 295 299 305 308 308 306 302 300 297 294 291 293 297 299 298 299 303 309 317 318 320 327 349 19 29 35 40 43 45 48 53 56 58 59
305 305 306 306 305 305 304 303 303 302 301 301 300 299 297 295 293 291 288 285 281 278 277 277 275 274 273 273 272 273 275 277 279 280 280 282 284 286 287 288 287 285 282 282 283 285 285 288 291 294 294 294 295 299 305 309 309 308 306 303 298 293 289 294 300 304 304 307 313 319 322 322 325 335 357 14 21 25 31 30 31 34 44 49 54 56
307 307 307 307 306 305 304 303 303 302 301 300 299 298 297 295 293 291 288 286 284 282 280 279 277 276 275 274 274 274 275 276 278 279 279 277 276 276 278 280 281 281 279 279 280 283 287 291 295 298 299 299 298 299 302 304 305 306 307 304 299 292 288 298 308 312 312 317 321 325 324 324 331 347 10 18 22 23 25 22 19 19 22 31 45 53
308 307 306 306 305 304 303 302 301 301 301 299 298 297 297 295 293 292 290 289 289 288 286 284 281 278 275 274 274 275 277 278 279 279 278 274 271 271 272 275 278 281 284 287 292 297 300 299 296 295 295 295 297 299 300 301 302 304 305 303 301 300 305 315 321 321 318 324 327 328 325 328 341 2 21 26 27 26 24 22 19 17 15 17 27 42
307 306 305 305 304 302 301 300 300 300 300 300 299 298 298 297 296 296 295 294 293 292 290 288 284 280 277 275 276 278 281 281 280 279 277 273 270 269 270 274 280 290 303 308 308 304 300 295 291 289 289 291 293 295 296 297 297 298 298 296 297 301 310 321 327 328 325 329 331 331 329 335 352 13 30 32 30 27 25 26 25 24 21 20 22 30
306 305 304 304 304 303 302 301 300 300 299 299 299 299 299 299 299 298 298 298 296 295 294 292 290 287 285 285 285 286 285 283 280 278 275 272 270 270 272 279 291 304 310 305 299 293 288 287 287 288 291 293 294 295 294 293 292 292 291 291 294 299 306 319 331 335 329 335 335 334 334 340 359 21 35 36 32 29 27 30 32 32 31 26 24 26
306 304 303 303 302 302 301 301 301 301 301 300 299 299 299 299 298 298 298 297 297 297 296 294 292 292 293 296 296 294 290 284 280 277 276 274 273 274 277 283 289 293 293 290 288 286 286 285 286 287 290 292 291 290 289 290 291 290 288 288 292 298 306 328 338 336 332 336 337 336 336 343 4 28 40 40 36 31 29 32 34 35 34 31 29 29
304 303 302 302 302 302 302 302 302 303 303 302 301 299 299 299 299 298 297 296 296 296 295 294 295 296 297 298 298 297 296 291 286 282 280 279 276 273 275 279 279 278 275 275 278 282 286 286 285 285 287 288 287 286 286 288 289 288 285 286 291 299 306 323 330 329 327 334 339 340 338 343 3 32 46 42 37 31 28 29 29 30 29 29 30 33
303 303 303 304 304 305 305 304 304 304 303 302 300 299 299 299 299 298 297 296 295 294 294 296 299 300 299 299 298 298 298 296 295 292 289 288 284 281 279 281 281 277 271 267 268 274 282 287 290 291 291 286 283 281 281 280 280 280 283 292 307 319 319 326 327 325 321 332 340 342 338 342 5 37 49 44 37 31 27 27 28 28 26 27 29 33
304 305 306 306 306 305 305 305 305 304 303 301 300 300 300 300 300 298 296 295 294 294 295 299 301 301 299 299 299 300 300 300 303 307 316 319 314 306 299 297 295 291 283 275 270 270 274 284 292 296 296 289 279 272 268 270 275 281 293 312 321 324 323 334 332 327 322 330 338 341 337 349 20 46 54 49 42 35 29 28 29 28 27 28 31 34
306 307 307 306 306 305 304 305 305 304 303 302 301 301 301 301 300 299 296 295 294 295 299 302 301 299 296 297 299 301 303 306 312 319 327 329 326 322 318 313 307 302 293 285 277 271 268 278 288 295 296 293 288 284 282 287 295 304 315 323 329 334 342 345 336 328 322 332 339 340 340 5 37 54 58 55 50 42 34 30 28 28 28 30 34 39
307 307 306 306 305 305 304 305 305 304 303 303 302 301 302 302 302 301 298 297 297 299 303 304 302 299 296 297 299 302 306 312 318 323 327 326 326 324 323 319 313 305 296 285 276 268 260 263 277 289 296 299 302 307 314 318 321 324 329 337 343 350 352 346 335 328 328 345 352 355 0 28 50 60 64 62 56 48 40 33 29 26 25 28 35 42
305 305 305 305 304 304 304 304 304 304 303 302 302 302 302 302 302 301 298 299 300 303 305 305 303 301 299 300 301 305 311 316 319 323 325 326 326 325 324 321 317 311 302 289 275 259 242 234 251 286 317 325 326 323 319 322 326 331 339 346 351 353 352 345 337 336 347 6 16 21 30 41 51 60 70 69 64 56 47 39 32 26 23 26 33 41
304 303 303 303 303 303 303 303 303 303 301 302 302 302 302 302 301 299 297 299 301 304 305 303 302 301 301 303 306 311 317 319 320 322 324 326 328 327 325 323 321 319 314 303 282 251 216 197 205 301 353 3 1 353 334 330 330 335 345 354 355 354 350 345 345 352 13 28 36 40 46 47 48 53 66 71 70 65 56 46 37 29 22 26 34 44
305 304 303 303 302 302 302 302 301 301 300 300 301 301 301 301 300 300 300 302 304 305 305 303 302 302 303 307 311 315 319 320 320 321 324 327 328 327 325 324 325 324 323 316 303 273 206 166 156 68 15 17 16 13 0 347 340 341 354 358 354 349 345 347 353 8 31 41 46 48 51 51 49 51 59 69 71 69 62 53 42 31 22 27 39 51